Location: Champs
(48.8539°N, 2.6040°E)
Time: 06:10:45
(UTC+00:00)

Cosmos 773 Rocket - Pass Details

Date: 26 October 2021
Orbit: 745 x 777 km, 74.1° (Epoch: 04 December)

Event Time Altitude Azimuth Distance (km) Brightness Sun altitude
Exits shadow 03:30:37 59° 32° (NNE) 888 4.4 -29.4°
Drops below altitude 10° 03:34:54 10° 24° (NNE) 2,328 6.9 -28.7°
Sets 03:37:18 0° 24° (NNE) 3,263 7.8 -28.4°
